GLD1774 TNCM-TQPF

Flight info

Callsign GLD1774
Flight time 0h -17m
Altitude 2000
Route DCT
Aircraft C172/L-SDFGIRY/S

Departure

Time 2026-04-16 15:11
Airport Princess Juliana International Airport (TNCM)

Arrival

Time 2026-04-16 14:54
Airport Clayton J. Lloyd International Airport (TQPF)
Time Latitude Longitude Altitude Speed Heading
2026-04-16 14:54 18.04184 -63.10948 16 ft 0 kts 352°
2026-04-16 15:05 18.04175 -63.10995 16 ft 14 kts 259°
2026-04-16 15:06 18.04154 -63.11132 16 ft 25 kts 261°
2026-04-16 15:06 18.04139 -63.11282 16 ft 18 kts 283°
2026-04-16 15:06 18.04223 -63.11336 16 ft 13 kts 313°
2026-04-16 15:06 18.04227 -63.11439 16 ft 18 kts 267°
2026-04-16 15:07 18.04167 -63.11549 16 ft 17 kts 231°
2026-04-16 15:07 18.04100 -63.11634 16 ft 12 kts 230°
2026-04-16 15:07 18.04062 -63.11658 16 ft 0 kts 186°
2026-04-16 15:09 18.04061 -63.11659 16 ft 2 kts 186°
2026-04-16 15:10 18.04007 -63.11640 16 ft 16 kts 124°
2026-04-16 15:10 18.04013 -63.11429 16 ft 51 kts 83°
2026-04-16 15:10 18.04072 -63.10928 23 ft 83 kts 82°
2026-04-16 15:10 18.04153 -63.10321 248 ft 80 kts 82°
2026-04-16 15:11 18.04248 -63.09731 360 ft 91 kts 84°
2026-04-16 15:11 18.04417 -63.09109 552 ft 87 kts 71°
2026-04-16 15:11 18.04770 -63.08575 674 ft 93 kts 39°
2026-04-16 15:11 18.05347 -63.08279 769 ft 95 kts 32°
2026-04-16 15:12 18.05965 -63.08006 911 ft 96 kts 23°
2026-04-16 15:12 18.06664 -63.07998 1153 ft 103 kts
2026-04-16 15:12 18.07427 -63.08076 1235 ft 115 kts
2026-04-16 15:12 18.08182 -63.08154 1388 ft 99 kts 11°
2026-04-16 15:13 18.08799 -63.08070 1538 ft 84 kts 15°
2026-04-16 15:13 18.09339 -63.08012 1671 ft 72 kts 17°
2026-04-16 15:13 18.09854 -63.07958 1700 ft 80 kts 17°
2026-04-16 15:13 18.10430 -63.07900 1847 ft 87 kts 13°
2026-04-16 15:14 18.11052 -63.07826 1995 ft 93 kts 20°
2026-04-16 15:14 18.11783 -63.07698 2004 ft 105 kts 15°
2026-04-16 15:14 18.12497 -63.07589 1995 ft 103 kts 17°
2026-04-16 15:14 18.13205 -63.07495 1994 ft 102 kts 17°
2026-04-16 15:15 18.13923 -63.07376 1936 ft 110 kts 17°
2026-04-16 15:15 18.14694 -63.07235 1789 ft 108 kts 17°
2026-04-16 15:15 18.15392 -63.07132 1609 ft 97 kts 16°
2026-04-16 15:15 18.16034 -63.07069 1435 ft 90 kts 17°
2026-04-16 15:16 18.16646 -63.07026 1262 ft 85 kts 15°
2026-04-16 15:16 18.17220 -63.06950 1126 ft 85 kts 17°
2026-04-16 15:16 18.17845 -63.06844 1034 ft 95 kts 16°
2026-04-16 15:16 18.18482 -63.06661 1011 ft 95 kts 27°
2026-04-16 15:17 18.19128 -63.06445 1006 ft 99 kts 32°
2026-04-16 15:17 18.19717 -63.06100 1007 ft 95 kts 46°
2026-04-16 15:17 18.20281 -63.05748 997 ft 92 kts 34°
2026-04-16 15:17 18.20831 -63.05471 994 ft 83 kts 37°
2026-04-16 15:18 18.21365 -63.05301 989 ft 81 kts 11°
2026-04-16 15:18 18.21906 -63.05303 986 ft 82 kts 351°
2026-04-16 15:18 18.22138 -63.05841 1008 ft 89 kts 265°
2026-04-16 15:18 18.22200 -63.06517 1152 ft 98 kts 271°
2026-04-16 15:19 18.22183 -63.07217 1108 ft 96 kts 265°
2026-04-16 15:19 18.21965 -63.07859 1052 ft 87 kts 210°
2026-04-16 15:19 18.21394 -63.08016 889 ft 88 kts 174°
2026-04-16 15:19 18.20848 -63.07842 825 ft 77 kts 136°
2026-04-16 15:20 18.20546 -63.07385 621 ft 73 kts 106°
2026-04-16 15:20 18.20491 -63.06876 441 ft 70 kts 92°
2026-04-16 15:20 18.20492 -63.06373 251 ft 67 kts 93°
2026-04-16 15:20 18.20480 -63.05918 127 ft 58 kts 90°
2026-04-16 15:21 18.20479 -63.05590 109 ft 22 kts 91°
2026-04-16 15:21 18.20545 -63.05532 107 ft 14 kts
2026-04-16 15:21 18.20616 -63.05565 108 ft 9 kts 340°
2026-04-16 15:21 18.20669 -63.05579 108 ft 7 kts 317°
2026-04-16 15:22 18.20674 -63.05593 108 ft 0 kts 282°
2026-04-16 15:22 18.20675 -63.05595 108 ft 0 kts 281°